Regional Weather Roundup
Issued by NWS

Home | Current Version | Previous Version | Text Only | Print | Product List | Glossary On
Versions: 1 2 3 4 5 6 7 8 9 10 11 12 13 14 15 16 17 18 19 20 21 22 23 24 25 26 27 28 29 30 31 32 33 34 35 36 37 38 39 40 41 42 43 44 45 46 47 48 49 50
000
ASUS45 KCYS 152310
RWRWY

WYOMING REGIONAL WEATHER ROUNDUP
NATIONAL WEATHER SERVICE CHEYENNE WY
500 PM MDT TUE OCT 15 2019

NOTE:  "FAIR" INDICATES FEW OR NO CLOUDS BELOW 12,000 FEET
WITH NO SIGNIFICANT WEATHER AND/OR OBSTRUCTIONS TO VISIBILITY.

WYZ001-160000-
YELLOWSTONE NATIONAL PARK

CITY           SKY/WX    TMP DP  RH WIND       PRES   REMARKS
LK YELLOWSTONE   N/A     48  23  37 VRB3      30.30R
W YELLOWSTONE  NOT AVBL

$$
WYZ002>013-054>058-071-098>099-160000-
NORTHERN WYOMING

CITY           SKY/WX    TMP DP  RH WIND       PRES   REMARKS
JACKSON        FAIR      58  23  26 VRB6      30.24S
CODY           FAIR      52  27  38 SE12      30.17S
GREYBULL       FAIR      55  27  34 S7        30.16F
WORLAND        FAIR      55  27  34 E6        30.16F
SHERIDAN       FAIR      54  28  36 E3        30.18F
BUFFALO        FAIR      49  29  46 SE10      30.20S
GILLETTE       FAIR      49  25  39 VRB5      30.20F
HULETT         FAIR      45  25  45 CALM      30.23S
NEWCASTLE      FAIR      46  21  36 NW8G18    30.24

$$
WYZ014>020-022>026-101>103-160000-
CENTRAL WYOMING

CITY           SKY/WX    TMP DP  RH WIND       PRES   REMARKS
BIG PINEY      FAIR      62  20  19 N8        30.24S
PINEDALE       FAIR      59  14  17 NW15      30.25S
DUBOIS         FAIR      55  21  26 NW13G23   30.22R
LANDER         FAIR      57  25  29 SE6       30.16S
RIVERTON       FAIR      55  27  34 MISG      30.18S
CASPER         FAIR      55  30  38 S5        30.17F
DOUGLAS        FAIR      53  25  33 NE7       30.21R

$$
WYZ021-027>030-104>119-160000-
SOUTHERN WYOMING

CITY           SKY/WX    TMP DP  RH WIND       PRES   REMARKS
EVANSTON       FAIR      61   8  12 W13       30.29R
KEMMERER       FAIR      59   7  12 NW13G23   30.28S
ROCK SPRINGS   FAIR      62  13  14 W18       30.23S
DIXON          FAIR      63   7  11 SW8       30.26S
RAWLINS        FAIR      60  13  15 W17       30.22S
SARATOGA       FAIR      61  12  15 W16G22    30.25R
LARAMIE        FAIR      59  11  15 NW13      30.22R
CHEYENNE       FAIR      54  24  31 E5        30.21R
TORRINGTON     FAIR      56  26  31 N7        30.19S
PINE BLUFFS    FAIR      52  27  37 N6        30.22S

$$



USA.gov is the U.S. government's official web portal to all federal, state and local government web resources and services.